Stations météo

réclame
Mon MeteoGroup
Bergamo/Orio al Serio, Italie (16076): Température de l'air & dewpoint: 18.01.2018 09:00:00 - 24.01.2018 09:00:00 (CET)Bergamo/Orio al Serio, Italie (16076): Vitesse du vent: 18.01.2018 09:00:00 - 24.01.2018 09:00:00 (CET)Bergamo/Orio al Serio, Italie (16076): Direction du vent: 18.01.2018 09:00:00 - 24.01.2018 09:00:00 (CET)Bergamo/Orio al Serio, Italie (16076): reduced air pressure: 18.01.2018 09:00:00 - 24.01.2018 09:00:00 (CET)Bergamo/Orio al Serio, Italie (16076): visibility: 18.01.2018 09:00:00 - 24.01.2018 09:00:00 (CET)
Date & Time tt [°C] td [°C] ff [km/h] ff [knt] dd ppp [hPa] vv [km]
24.01.2018 09:00:00 - - - - - - -
24.01.2018 08:00:00 2,0 -1,0 9 5 N - 7
24.01.2018 07:00:00 1,6 -0,8 11 6 N 1032,5 7
24.01.2018 06:00:00 1,0 -1,0 9 5 NNE - 8
24.01.2018 05:00:00 1,0 -1,0 11 6 N - 8
24.01.2018 04:00:00 1,5 -0,8 8 4 N 1032,6 7
24.01.2018 03:00:00 2,0 0,0 13 7 N - 7
24.01.2018 02:00:00 2,0 0,0 11 6 N - 7
24.01.2018 01:00:00 2,0 -0,2 11 6 N 1031,9 7
24.01.2018 00:00:00 2,0 0,0 9 5 N - 7
23.01.2018 23:00:00 3,0 0,0 9 5 NNE - 7
23.01.2018 22:00:00 3,0 0,3 13 7 N 1030,7 7
23.01.2018 21:00:00 4,0 1,0 11 6 N - 7
23.01.2018 20:00:00 4,0 1,0 9 5 N - 8
23.01.2018 19:00:00 5,7 1,4 9 5 NE 1028,4 7
23.01.2018 18:00:00 6,0 1,0 8 4 E - 8
23.01.2018 17:00:00 7,0 2,0 9 5 SE - 8
23.01.2018 16:00:00 8,2 1,3 13 7 SSE 1025,4 7
23.01.2018 15:00:00 9,0 1,0 13 7 SSE - 10
23.01.2018 14:00:00 9,0 1,0 9 5 SE - 10
23.01.2018 13:00:00 9,0 0,7 9 5 ESE 1023,1 7
23.01.2018 12:00:00 8,0 1,0 5 3 SSE - 10
23.01.2018 11:00:00 7,0 0,0 5 3 SSE - 10
23.01.2018 10:00:00 5,1 0,2 8 4 NNE 1021,9 15
23.01.2018 09:00:00 2,0 -2,0 8 4 NNE - 10
23.01.2018 08:00:00 0,0 -2,0 13 7 N - 10
23.01.2018 07:00:00 0,6 -2,3 8 4 N 1020,3 10
23.01.2018 06:00:00 - - - - - - -
23.01.2018 05:00:00 1,0 -2,0 9 5 NNE - 10
23.01.2018 04:00:00 0,6 -2,6 11 6 N 1018,9 10
23.01.2018 03:00:00 1,0 -2,0 11 6 NNE - 10
23.01.2018 02:00:00 1,0 -2,0 5 3 NNE - 10
23.01.2018 01:00:00 1,7 -1,5 9 5 NNE 1017,2 10
23.01.2018 00:00:00 2,0 -1,0 9 5 NNE - 10
22.01.2018 23:00:00 3,0 -1,0 9 5 N - 10
22.01.2018 22:00:00 3,4 -0,4 9 5 NE 1015,8 10
22.01.2018 21:00:00 5,0 -1,0 5 3 E - 10
22.01.2018 20:00:00 5,0 -1,0 9 5 NNW - 10
22.01.2018 19:00:00 5,1 -0,7 8 4 S 1014,3 10
22.01.2018 18:00:00 6,0 -1,0 5 3 - - 10
22.01.2018 17:00:00 8,0 -2,0 13 7 W - 10
22.01.2018 16:00:00 8,8 -2,9 9 5 W 1013,5 10
22.01.2018 15:00:00 9,0 -3,0 11 6 SW - 10
22.01.2018 14:00:00 9,0 -4,0 11 6 SW - 10
22.01.2018 13:00:00 9,5 -4,5 9 5 SW 1016,0 75
22.01.2018 12:00:00 9,0 -4,0 11 6 SSW - 10
22.01.2018 11:00:00 9,0 -4,0 8 4 SSW - 10
22.01.2018 10:00:00 6,5 -3,0 9 5 N 1017,7 75
22.01.2018 09:00:00 3,0 -3,0 11 6 N - 10
22.01.2018 08:00:00 2,0 -3,0 13 7 N - 10
22.01.2018 07:00:00 2,1 -3,2 13 7 N 1016,7 75
22.01.2018 06:00:00 2,0 -4,0 9 5 NNE - 10
22.01.2018 05:00:00 3,0 -3,0 11 6 N - 10
22.01.2018 04:00:00 2,7 -3,0 11 6 N 1016,7 75
22.01.2018 03:00:00 3,0 -3,0 13 7 N - 10
22.01.2018 02:00:00 3,0 -3,0 13 7 N - 10
22.01.2018 01:00:00 3,1 -3,3 11 6 N 1016,8 75
22.01.2018 00:00:00 4,0 -3,0 11 6 NNE - 10
21.01.2018 23:00:00 4,0 -3,0 9 5 NNE - 10
21.01.2018 22:00:00 5,0 -3,0 8 4 E 1014,8 75
21.01.2018 21:00:00 6,0 -2,0 5 3 NW - 10
21.01.2018 20:00:00 7,0 0,0 9 5 NNE - 10
21.01.2018 19:00:00 7,7 1,8 9 5 E 1011,5 75
21.01.2018 18:00:00 12,0 -7,0 5 3 NE - 10
21.01.2018 17:00:00 13,0 -8,0 24 13 NNW - 10
21.01.2018 16:00:00 14,3 -8,2 11 6 N 1007,5 75
21.01.2018 15:00:00 15,0 -7,0 21 11 N - 10
21.01.2018 14:00:00 13,0 2,0 8 4 - - 10
21.01.2018 13:00:00 11,5 2,9 4 2 SSE 1005,7 75
21.01.2018 12:00:00 11,0 2,0 22 12 NNW - 10
21.01.2018 11:00:00 8,0 2,0 13 7 WNW - 10
21.01.2018 10:00:00 5,6 2,1 15 8 N 1006,4 10
21.01.2018 09:00:00 3,0 1,0 8 4 N - 10
21.01.2018 08:00:00 1,0 0,0 8 4 N - 10
21.01.2018 07:00:00 1,5 0,4 8 4 N 1005,8 10
21.01.2018 06:00:00 1,0 0,0 9 5 NNW - 10
21.01.2018 05:00:00 2,0 1,0 11 6 W - 10
21.01.2018 04:00:00 3,6 1,5 15 8 NNE 1004,5 10
21.01.2018 03:00:00 4,0 1,0 8 4 N - 10
21.01.2018 02:00:00 5,0 1,0 21 11 N - 10
21.01.2018 01:00:00 4,9 -0,1 15 8 N 1004,6 15
21.01.2018 00:00:00 4,0 2,0 4 2 - - 10
20.01.2018 23:00:00 4,0 2,0 4 2 - - 10
20.01.2018 22:00:00 3,9 1,7 5 3 N 1007,7 15
20.01.2018 21:00:00 4,0 1,0 4 2 - - 10
20.01.2018 20:00:00 5,0 1,0 4 2 - - 10
20.01.2018 19:00:00 4,8 0,6 5 3 SE 1009,2 15
20.01.2018 18:00:00 6,0 1,0 15 8 E - 10
20.01.2018 17:00:00 7,0 1,0 13 7 ENE - 10
20.01.2018 16:00:00 7,1 0,8 5 3 ESE 1010,4 15
20.01.2018 15:00:00 7,0 1,0 9 5 E - 10
20.01.2018 14:00:00 6,0 2,0 5 3 SSE - 8
20.01.2018 13:00:00 6,5 1,0 8 4 SSE 1012,9 11
20.01.2018 12:00:00 7,0 -1,0 5 3 S - 10
20.01.2018 11:00:00 7,0 -1,0 2 1 - - 10
20.01.2018 10:00:00 5,0 -2,9 8 4 NE 1014,7 20
20.01.2018 09:00:00 1,0 -3,0 8 4 NNE - 10
20.01.2018 08:00:00 0,0 -4,0 11 6 NNE - 10
20.01.2018 07:00:00 -0,8 -4,9 5 3 NE 1015,1 20
20.01.2018 06:00:00 1,0 -4,0 11 6 NE - 10
20.01.2018 05:00:00 0,0 -4,0 9 5 E - 10
20.01.2018 04:00:00 2,1 -5,1 2 1 W 1013,6 20
20.01.2018 03:00:00 2,0 -5,0 5 3 NE - 10
20.01.2018 02:00:00 3,0 -5,0 13 7 N - 10
20.01.2018 01:00:00 2,1 -4,4 15 8 N 1013,3 20
20.01.2018 00:00:00 2,0 -3,0 13 7 N - 10
19.01.2018 23:00:00 2,0 -1,0 11 6 NE - 10
19.01.2018 22:00:00 2,9 -0,9 8 4 NE 1013,0 20
19.01.2018 21:00:00 3,0 0,0 11 6 NNE - 10
19.01.2018 20:00:00 4,0 1,0 5 3 NNE - 10
19.01.2018 19:00:00 4,2 0,7 8 4 ENE 1011,8 20
19.01.2018 18:00:00 6,0 2,0 8 4 ESE - 10
19.01.2018 17:00:00 7,0 2,0 9 5 ESE - 10
19.01.2018 16:00:00 9,5 2,0 11 6 SSE 1009,0 20
19.01.2018 15:00:00 10,0 1,0 11 6 W - 10
19.01.2018 14:00:00 8,0 0,0 11 6 NW - 10
19.01.2018 13:00:00 6,3 0,2 4 2 S 1008,9 20
19.01.2018 12:00:00 6,0 -1,0 4 2 - - 10
19.01.2018 11:00:00 7,0 -1,0 11 6 SSE - 10
19.01.2018 10:00:00 6,6 -1,4 4 2 - 1008,8 10
19.01.2018 09:00:00 2,0 -2,0 4 2 - - 10
19.01.2018 08:00:00 2,0 -3,0 11 6 N - 10
19.01.2018 07:00:00 1,6 -3,3 8 4 NNE 1008,8 10
19.01.2018 06:00:00 2,0 -3,0 11 6 N - 10
19.01.2018 05:00:00 2,0 -3,0 11 6 N - 10
19.01.2018 04:00:00 1,9 -3,3 11 6 N 1009,5 10
19.01.2018 03:00:00 2,0 -3,0 11 6 NNE - 10
19.01.2018 02:00:00 3,0 -3,0 11 6 N - 10
19.01.2018 01:00:00 3,0 -3,0 11 6 N 1010,8 10
19.01.2018 00:00:00 3,0 -3,0 9 5 N - 10
18.01.2018 23:00:00 3,0 -3,0 8 4 NE - 10
18.01.2018 22:00:00 3,5 -2,5 8 4 N 1011,9 10
18.01.2018 21:00:00 4,0 -2,0 13 7 N - 10
18.01.2018 20:00:00 5,0 -2,0 9 5 N - 10
18.01.2018 19:00:00 7,3 -0,9 9 5 WNW 1012,2 10
18.01.2018 18:00:00 8,0 -1,0 15 8 W - 10
18.01.2018 17:00:00 10,0 -2,0 16 9 W - 10
18.01.2018 16:00:00 10,8 -2,4 15 8 W 1011,9 10
18.01.2018 15:00:00 12,0 -6,0 22 12 W - 10
18.01.2018 14:00:00 12,0 -6,0 18 10 W - 10
18.01.2018 13:00:00 11,3 -4,7 21 11 W 1013,8 10
18.01.2018 12:00:00 11,0 -7,0 9 5 WNW - 10
18.01.2018 11:00:00 8,0 -7,0 9 5 N - 10
18.01.2018 10:00:00 6,3 -6,6 9 5 N 1016,3 20
18.01.2018 09:00:00 3,0 -7,0 9 5 NNE - 10

tt = Température de l'air
td = dewpoint
ff = Vitesse du vent
dd = Direction du vent
ppp = reduced air pressure
vv = visibility

stations d'obs. à proximité